Flag for Canada Weather past 2 weeks in Taloyoak, Nunavut, Canada

-22 °F

Snow flurries. Passing clouds.

Feels Like: -48 °F
Forecast: -30 / -20 °F
Wind: 15 mph from Northwest

Location: Spence Bay Airport

Current Time: Nov 30, 2015 at 12:24:03 AM

Latest Report: Nov 30, 2015 at 12:00 AM

Visibility: 15 mi

Pressure: 29.72 "Hg

Humidity: 75%

Dew point: -27 °F

Location of TaloyoakLocation

Historic Weather in Taloyoak — Graph


Taloyoak temperature yesterday

Maximum temperature yesterday: -8 °F (at 7:00 AM)
Minimum temperature yesterday: -22 °F (at 6:00 PM)
Average temperature yesterday: -15 °F

Past Weeks' High & Low Weather Summary

High23 °F (Nov 14, 11:00 PM)100% (Nov 16, 4:00 AM)30.28 "Hg (Nov 16, 4:00 AM)
Low-29 °F (Nov 25, 10:00 PM)67% (Nov 25, 1:00 PM)29.18 "Hg (Nov 18, 3:00 PM)
Average-7 °F81%29.81 "Hg
* Reported Nov 14 11:00 PM — Nov 29 11:00 PM, Taloyoak, Weather by CustomWeather, © 2015

Note: Actual official high and low records may vary slightly from our data, if they occured in-between our weather recording intervals... More about our weather records


Taloyoak weather history for previous 24 hours

Time TempWeatherWind HumidityBarometerVisibility
11:00 PM
Sun, Nov 29
-20 °FSnow flurries. Passing clouds.15 mph75%29.72 "Hg13 mi
10:00 PM-18 °FSnow flurries. Passing clouds.15 mph75%29.72 "Hg13 mi
9:00 PM-17 °FSnow flurries. Passing clouds.12 mph76%29.71 "Hg15 mi
8:00 PM-20 °FSnow flurries. Passing clouds.3 mph75%29.72 "Hg15 mi
7:00 PM-20 °FSnow flurries. Passing clouds.8 mph75%29.72 "Hg15 mi
6:00 PM-22 °FSnow flurries. Passing clouds.5 mph75%29.72 "Hg15 mi
5:00 PM-20 °FSnow flurries. Passing clouds.5 mph75%29.72 "Hg12 mi
4:00 PM-20 °FSnow flurries. Passing clouds.9 mph75%29.72 "Hg8 mi
3:00 PM-18 °FLight snow. Ice fog.6 mph75%29.72 "Hg5 mi
2:00 PM-15 °FLight snow. Ice fog.8 mph83%29.71 "Hg1 mi
1:00 PM-11 °FIce fog.7 mph76%29.71 "Hg1 mi
12:00 PM-13 °FLight snow. Ice fog.7 mph76%29.72 "Hg1 mi
11:00 AM-13 °FLight snow. Ice fog.5 mph83%29.73 "Hg6 mi
10:00 AM-9 °FLight snow. Fog.3 mph77%29.73 "Hg9 mi
9:00 AM-9 °FFog.5 mph77%29.75 "Hg9 mi
8:00 AM-9 °FIce fog.No wind77%29.76 "Hg1 mi
7:00 AM-8 °FIce fog.2 mph77%29.78 "Hg1 mi
6:00 AM-9 °FIce fog.2 mph77%29.80 "Hg1 mi
5:54 AM-11 °FIce fog.No wind84%29.80 "Hg1 mi
5:00 AM-11 °FBroken clouds.3 mph76%29.81 "Hg15 mi
4:00 AM-15 °FPassing clouds.3 mph83%29.83 "Hg15 mi
3:00 AM-15 °FSnow flurries. Passing clouds.2 mph76%29.84 "Hg15 mi
2:00 AM-17 °FSnow flurries. Passing clouds.7 mph76%29.86 "Hg15 mi
1:00 AM-18 °FSnow flurries. Passing clouds.5 mph75%29.89 "Hg15 mi
12:00 AM-18 °FSnow flurries. Clear.8 mph83%29.89 "Hg15 mi
Weather by CustomWeather, © 2015

See weather overviewHow to use our weather pages